OneWeb SL0271

operational
NORAD ID: 48989 Int'l Des: 2021-060 Owner: ONEWEBN Country: UK Constellation: oneweb
LEOCIRCULARPOLARONEWEB_TYPE

Über OneWeb SL0271

Beschreibung wird geladen...

Live-Position

3D-Globus wird geladen...

Nächste Überflüge

Höhenverlauf

Altitude vs Time

uPlot chart will show altitude changes over time

Zweizeiliger Elementsatz

1 48989U 21060Y 26062.53507343 .00000000 00000-0 -34736-4 0 9991
2 48989 87.9002 249.7913 0001653 103.8139 256.3176 13.16596358225760
Epoch: 3. März 2026 • Age: 38 hours

Aktueller Status

Höhe 1204.3 km
Geschwindigkeit 7.25 km/s
Subsatellitenpunkt -16.32°S, 64.68°E
Startdatum 1. Juli 2021
Alter 4.6 years
Typ internet

Technische Details

Klassifizierung Payload
Masse 148.00 kg
Trockenmasse 140.00 kg
Gesamtmasse 148.00 kg
Länge 1.30 m
Durchmesser 1.00 m
Spannweite 5.00 m
Form Trapezoid+2 pan
Hersteller ONEWUS
Bus-Typ ARROW
Phasenstatus In Orbit
Besitzer/Staat ONEWEBN/UK

Große Konstellationen

Loading constellations...